Printer-friendly version

IAU Minor Planet Center

Minor Planet Center

MPEC 2002-F13 : 2002 EY11

The following Minor Planet Electronic Circular may be linked-to from your own Web pages, but must not otherwise be redistributed electronically.


Read MPEC 2002-F12 Read MPEC 2002-F14


M.P.E.C. 2002-F13                                Issued 2002 Mar. 18, 16:39 UT

     The Minor Planet Electronic Circulars contain information on unusual
         minor planets and routine data on comets.  They are published
   on behalf of Commission 20 of the International Astronomical Union by the
          Minor Planet Center, Smithsonian Astrophysical Observatory,
                          Cambridge, MA 02138, U.S.A.

             Prepared using the Tamkin Foundation Computer Network

                              MPC@CFA.HARVARD.EDU
          URL http://cfa-www.harvard.edu/iau/mpc.html  ISSN 1523-6714

                                   2002 EY11

Observations:
     K02E11Y* C2002 03 15.23938 10 29 54.01 +04 04 16.2          19.5        704
     K02E11Y  C2002 03 15.25275 10 29 56.68 +04 04 48.0          19.7        704
     K02E11Y  C2002 03 15.26616 10 29 59.36 +04 05 19.7          19.7        704
     K02E11Y  C2002 03 15.27962 10 30 01.94 +04 05 51.6          19.8        704
     K02E11Y  C2002 03 16.24597 10 33 27.32 +04 44 08.8          19.6        704
     K02E11Y  C2002 03 16.25939 10 33 29.97 +04 44 41.1          19.8        704
     K02E11Y  C2002 03 16.27281 10 33 32.55 +04 45 12.4          20.0        704
     K02E11Y  C2002 03 16.28627 10 33 35.20 +04 45 42.7          19.3        704
     K02E11Y  C2002 03 16.29084 10 33 36.30 +04 45 52.8                      684
     K02E11Y  C2002 03 16.29564 10 33 37.29 +04 46 03.8                      684
     K02E11Y  C2002 03 16.29977 10 33 37.91 +04 46 14.7          19.5        704
     K02E11Y IC2002 03 17.48198 10 37 46.04 +05 32 07.1                      422
     K02E11Y  C2002 03 17.53581 10 37 57.26 +05 33 22.3          19.6 R      344
     K02E11Y  C2002 03 17.54616 10 37 59.26 +05 33 45.4          19.2 R      344
     K02E11Y  C2002 03 17.86083 10 39 04.12 +05 45 18.0                      557
     K02E11Y  C2002 03 17.86222 10 39 04.26 +05 45 20.9                      557
     K02E11Y  C2002 03 17.98759 10 39 28.68 +05 49 59.3                      246
     K02E11Y  C2002 03 17.98920 10 39 29.02 +05 50 01.9                      246
     K02E11Y  C2002 03 17.99036 10 39 29.31 +05 50 04.8                      246
     K02E11Y  C2002 03 17.99241 10 39 29.67 +05 50 09.9                      246
     K02E11Y  C2002 03 17.99352 10 39 29.87 +05 50 12.0                      246
     K02E11Y  C2002 03 17.99537 10 39 30.19 +05 50 15.9                      246
     K02E11Y  C2002 03 18.22616 10 40 19.09 +05 58 53.1          20.0 R      651
     K02E11Y  C2002 03 18.22836 10 40 19.46 +05 58 56.5          19.9 R      651
     K02E11Y  C2002 03 18.23060 10 40 19.87 +05 59 02.5          20.3 R      651

Observer details:
246 Klet Observatory-KLENOT.  Observers J. Ticha, M. Tichy, M. Kocer.  1.06-m
    KLENOT telescope + CCD.
344 Bohyunsan Optical Astronomy Observatory.  Observer J.-B. Jeon.  1.8-m
    f/8 reflector + CCD.
422 Loomberah.  Observer G. J. Garradd.  0.45-m f/5.4 reflector + CCD.
557 Ondrejov.  Observer L. Sarounova.  0.65-m f/3.6 reflector + CCD.
651 Grasslands Observatory, Tucson.  Observer J. E. McGaha.  0.62-m f/5.1
    reflector + CCD.
684 Prescott.  Observer P. G. Comba.  0.46-m f/4.5 reflector + CCD.
704 Lincoln Laboratory ETS, New Mexico.  Observers M. Blythe, F. Shelly,
    M. Bezpalko, R. Huber, L. Manguso, S. Adams, J. Piscitelli.  Measurers
    J. Stuart, R. Sayer, J. B. Evans, H. Viggh.  1.0-m f/2.15 reflector + CCD.

Orbital elements:
2002 EY11
Epoch 2002 Mar. 7.0 TT = JDT 2452340.5                  MPC
M   5.92413              (2000.0)            P               Q
n   0.30581347     Peri.  328.78614     -0.82341999     -0.56734446
a   2.1818839      Node   176.59819     +0.54912306     -0.80116332
e   0.4728059      Incl.    9.69212     +0.14298038     -0.19041430
P   3.22           H   22.3           G   0.15
From 25 observations 2002 Mar. 15-18.

Ephemeris:
2002 EY11                a,e,i = 2.18, 0.47, 10                  q = 1.1503
Date    TT    R. A. (2000) Decl.     Delta      r     Elong.  Phase     V
2002 03 07    09 59.31   -01 59.3    0.186    1.170   161.0    16.0    19.9
2002 03 17    10 36.08   +05 13.5    0.208    1.194   162.2    14.8    20.1
2002 03 27    11 08.15   +10 24.7    0.245    1.228   157.5    18.1    20.6
2002 04 06    11 34.66   +13 20.4    0.296    1.268   151.3    22.3    21.2
2002 04 16    11 56.50   +14 27.4    0.360    1.315   145.3    25.7    21.8
2002 04 26    12 15.17   +14 16.9    0.434    1.367   139.8    28.4    22.4

Timothy B. Spahr             (C) Copyright 2002 MPC           M.P.E.C. 2002-F13

Read MPEC 2002-F12 Read MPEC 2002-F14


Our Web policy. Index to the CBAT/MPC/ICQ pages.


Valid HTML 4.01!